| time (UTC) | temp C | wind direction | speed KPH | gust KPH | rain 1hr cm | rain 24hr cm | rain mn cm | humidity % | barometer mb |
| 20260505035540 | 12 | 271 | 0.0 | 4.8 | 0.00 | 0.00 | 0.00 | 86 | 1013.9 |
| 20260505035040 | 12 | 0 | 0.0 | 4.8 | 0.00 | 0.00 | 0.00 | 87 | 1013.9 |
| 20260505034612 | 12 | 0 | 0.0 | 1.6 | 0.00 | 0.00 | 0.00 | 86 | 1013.9 |
| 20260505034044 | 12 | 0 | 0.0 | 1.6 | 0.00 | 0.00 | 0.00 | 86 | 1013.8 |
| 20260505033544 | 12 | 0 | 0.0 | 1.6 | 0.00 | 0.00 | 0.00 | 86 | 1013.8 |
| 20260505033053 | 12 | 286 | 0.0 | 4.8 | 0.00 | 0.00 | 0.00 | 86 | 1013.8 |
| 20260505032543 | 12 | 303 | 0.0 | 4.8 | 0.00 | 0.00 | 0.00 | 86 | 1013.8 |
| 20260505032043 | 12 | 0 | 0.0 | 3.2 | 0.00 | 0.00 | 0.00 | 86 | 1013.7 |
| 20260505031549 | 12 | 0 | 0.0 | 3.2 | 0.00 | 0.00 | 0.00 | 86 | 1013.7 |
| 20260505031043 | 12 | 301 | 0.0 | 3.2 | 0.00 | 0.00 | 0.00 | 86 | 1013.7 |
| 20260505030544 | 12 | 171 | 0.0 | 4.8 | 0.00 | 0.00 | 0.00 | 86 | 1013.6 |
| 20260505030051 | 12 | 0 | 0.0 | 4.8 | 0.00 | 0.00 | 0.00 | 85 | 1013.6 |
| 20260505025542 | 12 | 209 | 0.0 | 3.2 | 0.00 | 0.00 | 0.00 | 85 | 1013.5 |
| 20260505025041 | 12 | 281 | 0.0 | 4.8 | 0.00 | 0.00 | 0.00 | 85 | 1013.5 |
| 20260505024544 | 12 | 317 | 0.0 | 4.8 | 0.00 | 0.00 | 0.00 | 85 | 1013.5 |
| 20260505024043 | 12 | 279 | 0.0 | 4.8 | 0.00 | 0.00 | 0.00 | 85 | 1013.4 |
| 20260505023541 | 12 | 0 | 0.0 | 3.2 | 0.00 | 0.00 | 0.00 | 85 | 1013.5 |
| 20260505023048 | 13 | 279 | 0.0 | 3.2 | 0.00 | 0.00 | 0.00 | 85 | 1013.5 |
| 20260505022546 | 13 | 22 | 0.0 | 3.2 | 0.00 | 0.00 | 0.00 | 85 | 1013.5 |
| 20260505022043 | 13 | 321 | 0.0 | 3.2 | 0.00 | 0.00 | 0.00 | 84 | 1013.5 |
| 20260505021551 | 13 | 0 | 0.0 | 4.8 | 0.00 | 0.00 | 0.00 | 85 | 1013.5 |
| 20260505021044 | 13 | 0 | 0.0 | 4.8 | 0.00 | 0.00 | 0.00 | 84 | 1013.5 |
| 20260505020544 | 13 | 201 | 1.6 | 6.4 | 0.00 | 0.00 | 0.00 | 84 | 1013.7 |
| 20260505020049 | 13 | 242 | 0.0 | 9.7 | 0.00 | 0.00 | 0.00 | 84 | 1013.7 |
| 20260505015541 | 13 | 186 | 1.6 | 9.7 | 0.00 | 0.00 | 0.00 | 84 | 1013.6 |
| 20260505015045 | 13 | 189 | 1.6 | 4.8 | 0.00 | 0.00 | 0.00 | 84 | 1013.6 |
| 20260505014549 | 13 | 152 | 0.0 | 4.8 | 0.00 | 0.00 | 0.00 | 84 | 1013.7 |
| 20260505014045 | 13 | 0 | 1.6 | 4.8 | 0.00 | 0.00 | 0.00 | 84 | 1013.8 |
| 20260505013540 | 13 | 303 | 0.0 | 6.4 | 0.00 | 0.00 | 0.00 | 84 | 1013.8 |
| 20260505013047 | 13 | 207 | 0.0 | 6.4 | 0.00 | 0.00 | 0.00 | 83 | 1013.8 |
| 20260505012544 | 13 | 188 | 0.0 | 6.4 | 0.00 | 0.00 | 0.00 | 83 | 1013.8 |
| 20260505012040 | 13 | 198 | 1.6 | 6.4 | 0.00 | 0.00 | 0.00 | 83 | 1013.8 |
| 20260505011605 | 13 | 251 | 0.0 | 6.4 | 0.00 | 0.00 | 0.00 | 83 | 1013.8 |
| 20260505011041 | 13 | 254 | 1.6 | 6.4 | 0.00 | 0.00 | 0.00 | 83 | 1013.9 |
| 20260505010540 | 13 | 236 | 0.0 | 8.0 | 0.00 | 0.00 | 0.00 | 83 | 1013.9 |
| 20260505010049 | 13 | 266 | 0.0 | 9.7 | 0.00 | 0.00 | 0.00 | 83 | 1013.8 |
| 20260505005540 | 13 | 0 | 1.6 | 9.7 | 0.00 | 0.00 | 0.00 | 83 | 1013.8 |
| 20260505005044 | 13 | 234 | 0.0 | 8.0 | 0.00 | 0.00 | 0.00 | 83 | 1013.9 |
| 20260505004547 | 13 | 225 | 1.6 | 6.4 | 0.00 | 0.00 | 0.00 | 83 | 1013.9 |
| 20260505004044 | 13 | 176 | 1.6 | 6.4 | 0.00 | 0.00 | 0.00 | 82 | 1013.9 |
| 20260505003547 | 13 | 315 | 1.6 | 8.0 | 0.00 | 0.00 | 0.00 | 83 | 1013.8 |
| 20260505003053 | 13 | 188 | 1.6 | 8.0 | 0.00 | 0.00 | 0.00 | 83 | 1013.9 |
| 20260505002544 | 14 | 159 | 0.0 | 6.4 | 0.00 | 0.00 | 0.00 | 82 | 1014.0 |
| 20260505002044 | 14 | 219 | 1.6 | 6.4 | 0.00 | 0.00 | 0.00 | 82 | 1014.1 |
| 20260505001558 | 14 | 272 | 1.6 | 6.4 | 0.00 | 0.00 | 0.00 | 82 | 1013.9 |
| 20260505001044 | 14 | 221 | 1.6 | 8.0 | 0.00 | 0.00 | 0.00 | 81 | 1014.0 |
| 20260505000544 | 14 | 234 | 1.6 | 8.0 | 0.00 | 0.00 | 0.00 | 81 | 1013.9 |
| 20260505000104 | 14 | 270 | 1.6 | 8.0 | 0.00 | 0.00 | 0.00 | 81 | 1014.1 |
| 20260504235543 | 14 | 273 | 1.6 | 8.0 | 0.00 | 0.00 | 0.00 | 81 | 1014.0 |
| 20260504235044 | 14 | 199 | 1.6 | 6.4 | 0.00 | 0.00 | 0.00 | 81 | 1014.1 |
| 20260504234555 | 15 | 329 | 1.6 | 8.0 | 0.00 | 0.00 | 0.00 | 80 | 1014.0 |
| 20260504234040 | 15 | 165 | 1.6 | 8.0 | 0.00 | 0.00 | 0.00 | 80 | 1014.0 |
| 20260504233544 | 15 | 223 | 1.6 | 8.0 | 0.00 | 0.00 | 0.00 | 80 | 1014.1 |
| 20260504233103 | 15 | 297 | 1.6 | 8.0 | 0.00 | 0.00 | 0.00 | 79 | 1014.0 |
| 20260504232544 | 15 | 285 | 1.6 | 6.4 | 0.00 | 0.00 | 0.00 | 79 | 1014.0 |
| 20260504232040 | 15 | 232 | 1.6 | 6.4 | 0.00 | 0.00 | 0.00 | 79 | 1013.9 |
| 20260504231549 | 15 | 232 | 1.6 | 8.0 | 0.00 | 0.00 | 0.00 | 79 | 1013.8 |
| 20260504231043 | 15 | 296 | 1.6 | 9.7 | 0.00 | 0.00 | 0.00 | 78 | 1014.0 |
| 20260504230541 | 15 | 195 | 1.6 | 9.7 | 0.00 | 0.00 | 0.00 | 79 | 1014.1 |
| 20260504230053 | 15 | 0 | 1.6 | 8.0 | 0.00 | 0.00 | 0.00 | 78 | 1014.1 |
| 20260504225547 | 15 | 227 | 1.6 | 9.7 | 0.00 | 0.00 | 0.00 | 78 | 1014.1 |
| 20260504225044 | 15 | 200 | 3.2 | 9.7 | 0.00 | 0.00 | 0.00 | 78 | 1014.2 |
| 20260504224552 | 15 | 124 | 1.6 | 6.4 | 0.00 | 0.00 | 0.00 | 78 | 1014.2 |
| 20260504224040 | 16 | 174 | 1.6 | 6.4 | 0.00 | 0.00 | 0.00 | 78 | 1014.2 |
| 20260504223540 | 16 | 0 | 3.2 | 6.4 | 0.00 | 0.00 | 0.00 | 78 | 1014.2 |
| 20260504223050 | 16 | 271 | 1.6 | 8.0 | 0.00 | 0.00 | 0.00 | 77 | 1014.1 |
| 20260504222546 | 16 | 221 | 1.6 | 8.0 | 0.00 | 0.00 | 0.00 | 77 | 1014.2 |
| 20260504222042 | 16 | 88 | 1.6 | 8.0 | 0.00 | 0.00 | 0.00 | 78 | 1014.2 |
| 20260504221546 | 16 | 231 | 1.6 | 6.4 | 0.00 | 0.00 | 0.00 | 77 | 1014.1 |
| 20260504221044 | 16 | 240 | 3.2 | 11.3 | 0.00 | 0.00 | 0.00 | 76 | 1014.1 |
| 20260504220544 | 16 | 221 | 1.6 | 11.3 | 0.00 | 0.00 | 0.00 | 77 | 1014.1 |
| 20260504220054 | 16 | 174 | 3.2 | 9.7 | 0.00 | 0.00 | 0.00 | 77 | 1014.1 |
| 20260504215544 | 16 | 223 | 3.2 | 8.0 | 0.00 | 0.00 | 0.00 | 76 | 1014.0 |
| 20260504215043 | 16 | 229 | 1.6 | 8.0 | 0.00 | 0.00 | 0.00 | 75 | 1014.1 |
| 20260504214552 | 16 | 219 | 1.6 | 8.0 | 0.00 | 0.00 | 0.00 | 77 | 1014.1 |
| 20260504214043 | 16 | 298 | 3.2 | 8.0 | 0.00 | 0.00 | 0.00 | 76 | 1014.2 |
| 20260504213543 | 16 | 248 | 3.2 | 8.0 | 0.00 | 0.00 | 0.00 | 76 | 1014.1 |
| 20260504213052 | 16 | 188 | 1.6 | 8.0 | 0.00 | 0.00 | 0.00 | 77 | 1014.1 |
| 20260504212544 | 16 | 205 | 1.6 | 9.7 | 0.00 | 0.00 | 0.00 | 77 | 1014.1 |
| 20260504212043 | 16 | 303 | 1.6 | 9.7 | 0.00 | 0.00 | 0.00 | 78 | 1014.2 |
| 20260504211552 | 16 | 244 | 3.2 | 8.0 | 0.00 | 0.00 | 0.00 | 78 | 1014.2 |
| 20260504211043 | 16 | 15 | 1.6 | 8.0 | 0.00 | 0.00 | 0.00 | 78 | 1014.1 |
| 20260504210544 | 16 | 286 | 1.6 | 8.0 | 0.00 | 0.00 | 0.00 | 78 | 1014.2 |
| 20260504210052 | 16 | 225 | 1.6 | 6.4 | 0.00 | 0.00 | 0.00 | 78 | 1014.4 |
| 20260504205544 | 16 | 233 | 1.6 | 6.4 | 0.00 | 0.00 | 0.00 | 79 | 1014.4 |
| 20260504205045 | 15 | 262 | 1.6 | 6.4 | 0.00 | 0.00 | 0.00 | 79 | 1014.4 |
| 20260504204551 | 15 | 228 | 1.6 | 4.8 | 0.00 | 0.00 | 0.00 | 79 | 1014.5 |
| 20260504204044 | 15 | 306 | 1.6 | 6.4 | 0.00 | 0.00 | 0.00 | 79 | 1014.5 |
| 20260504203544 | 15 | 51 | 1.6 | 8.0 | 0.00 | 0.00 | 0.00 | 80 | 1014.5 |
| 20260504203056 | 15 | 254 | 1.6 | 11.3 | 0.00 | 0.00 | 0.00 | 80 | 1014.5 |
| 20260504202544 | 15 | 281 | 1.6 | 11.3 | 0.00 | 0.00 | 0.00 | 80 | 1014.6 |
| 20260504202046 | 15 | 192 | 1.6 | 8.0 | 0.00 | 0.00 | 0.00 | 80 | 1014.6 |
| 20260504201549 | 15 | 304 | 3.2 | 8.0 | 0.00 | 0.00 | 0.00 | 80 | 1014.7 |
| 20260504201043 | 15 | 202 | 1.6 | 8.0 | 0.00 | 0.00 | 0.00 | 80 | 1014.7 |
| 20260504200543 | 15 | 314 | 1.6 | 8.0 | 0.00 | 0.00 | 0.00 | 80 | 1014.7 |
| 20260504200046 | 15 | 175 | 1.6 | 9.7 | 0.00 | 0.00 | 0.00 | 80 | 1014.7 |
| 20260504195543 | 15 | 297 | 1.6 | 9.7 | 0.00 | 0.00 | 0.00 | 80 | 1014.7 |
| 20260504195044 | 15 | 294 | 1.6 | 9.7 | 0.00 | 0.00 | 0.00 | 80 | 1014.8 |
| 20260504194601 | 15 | 217 | 1.6 | 4.8 | 0.00 | 0.00 | 0.00 | 80 | 1014.7 |
| 20260504194043 | 15 | 233 | 1.6 | 6.4 | 0.00 | 0.00 | 0.00 | 81 | 1014.6 |
| 20260504193544 | 15 | 275 | 1.6 | 6.4 | 0.00 | 0.00 | 0.00 | 81 | 1014.5 |
| 20260504193049 | 15 | 202 | 1.6 | 4.8 | 0.00 | 0.00 | 0.00 | 81 | 1014.7 |
| 20260504192545 | 15 | 239 | 1.6 | 6.4 | 0.00 | 0.00 | 0.00 | 81 | 1014.7 |
| 20260504192043 | 15 | 223 | 1.6 | 6.4 | 0.00 | 0.00 | 0.00 | 82 | 1014.7 |
| 20260504191607 | 15 | 175 | 1.6 | 6.4 | 0.00 | 0.00 | 0.00 | 82 | 1014.6 |
| 20260504191044 | 15 | 239 | 0.0 | 4.8 | 0.00 | 0.00 | 0.00 | 82 | 1014.7 |
| 20260504190547 | 15 | 274 | 1.6 | 6.4 | 0.00 | 0.00 | 0.00 | 82 | 1014.6 |
| 20260504190052 | 15 | 136 | 0.0 | 6.4 | 0.00 | 0.00 | 0.00 | 82 | 1014.6 |
| 20260504185543 | 14 | 171 | 1.6 | 4.8 | 0.00 | 0.03 | 0.00 | 82 | 1014.6 |
| 20260504185044 | 14 | 270 | 1.6 | 4.8 | 0.00 | 0.03 | 0.00 | 82 | 1014.6 |
| 20260504184549 | 14 | 0 | 0.0 | 4.8 | 0.00 | 0.03 | 0.00 | 82 | 1014.6 |
| 20260504184043 | 14 | 223 | 1.6 | 4.8 | 0.00 | 0.03 | 0.00 | 82 | 1014.6 |
| 20260504183540 | 14 | 217 | 0.0 | 4.8 | 0.00 | 0.03 | 0.00 | 82 | 1014.7 |
| 20260504183050 | 14 | 177 | 0.0 | 4.8 | 0.00 | 0.03 | 0.00 | 83 | 1014.6 |
| 20260504182541 | 14 | 214 | 1.6 | 4.8 | 0.00 | 0.03 | 0.00 | 82 | 1014.6 |
| 20260504182044 | 14 | 259 | 0.0 | 4.8 | 0.00 | 0.03 | 0.00 | 83 | 1014.4 |
| 20260504181558 | 14 | 0 | 1.6 | 4.8 | 0.00 | 0.03 | 0.00 | 82 | 1014.4 |
| 20260504181044 | 14 | 315 | 1.6 | 4.8 | 0.00 | 0.03 | 0.00 | 82 | 1014.3 |
| 20260504180543 | 14 | 169 | 0.0 | 3.2 | 0.00 | 0.03 | 0.00 | 82 | 1014.3 |
| 20260504180051 | 14 | 95 | 1.6 | 4.8 | 0.00 | 0.03 | 0.00 | 82 | 1014.4 |
| 20260504175543 | 13 | 0 | 1.6 | 4.8 | 0.00 | 0.03 | 0.00 | 82 | 1014.3 |
| 20260504175040 | 13 | 229 | 0.0 | 4.8 | 0.00 | 0.03 | 0.00 | 83 | 1014.2 |
| 20260504174556 | 13 | 219 | 0.0 | 4.8 | 0.00 | 0.03 | 0.00 | 83 | 1014.2 |
| 20260504174041 | 13 | 310 | 1.6 | 3.2 | 0.00 | 0.03 | 0.00 | 83 | 1014.3 |
| 20260504173541 | 13 | 242 | 0.0 | 3.2 | 0.00 | 0.03 | 0.00 | 83 | 1014.2 |
| 20260504173056 | 13 | 293 | 0.0 | 6.4 | 0.00 | 0.03 | 0.00 | 83 | 1014.3 |
| 20260504172547 | 13 | 242 | 0.0 | 6.4 | 0.00 | 0.03 | 0.00 | 84 | 1014.3 |
| 20260504172045 | 13 | 163 | 1.6 | 6.4 | 0.00 | 0.03 | 0.00 | 84 | 1014.3 |
| 20260504171554 | 13 | 229 | 0.0 | 3.2 | 0.00 | 0.03 | 0.00 | 84 | 1014.3 |
| 20260504171041 | 13 | 0 | 0.0 | 4.8 | 0.00 | 0.03 | 0.00 | 84 | 1014.2 |
| 20260504170541 | 13 | 0 | 1.6 | 4.8 | 0.00 | 0.03 | 0.00 | 84 | 1014.3 |
| 20260504151044 | 12 | 0 | 0.0 | 3.2 | 0.00 | 0.03 | 0.00 | 87 | 1014.0 |
| 20260504150545 | 12 | 0 | 0.0 | 3.2 | 0.00 | 0.03 | 0.00 | 88 | 1013.9 |
| 20260504141040 | 12 | 0 | 0.0 | 1.6 | 0.00 | 0.03 | 0.00 | 90 | 1013.5 |
| 20260504140544 | 11 | 0 | 0.0 | 1.6 | 0.00 | 0.03 | 0.00 | 90 | 1013.5 |
| 20260504130544 | 11 | 0 | 0.0 | 0.0 | 0.00 | 0.03 | 0.00 | 91 | 1013.0 |
| 20260504110540 | 11 | 211 | 0.0 | 8.0 | 0.00 | 0.03 | 0.00 | 89 | 1012.8 |
| 20260504100547 | 12 | 0 | 0.0 | 0.0 | 0.00 | 0.03 | 0.00 | 89 | 1012.6 |
| 20260504090105 | 12 | 0 | 0.0 | 1.6 | 0.00 | 0.03 | 0.00 | 89 | 1012.4 |
| 20260504081554 | 12 | 171 | 0.0 | 3.2 | 0.00 | 0.03 | 0.00 | 88 | 1012.3 |
| 20260504081042 | 12 | 0 | 0.0 | 3.2 | 0.00 | 0.03 | 0.00 | 88 | 1012.3 |
| 20260504080542 | 12 | 0 | 0.0 | 3.2 | 0.00 | 0.03 | 0.00 | 88 | 1012.4 |
| 20260504050542 | 14 | 190 | 4.8 | 9.7 | 0.00 | 0.03 | 0.03 | 83 | 1010.7 |
| 20260504045546 | 15 | 167 | 4.8 | 8.0 | 0.00 | 0.03 | 0.03 | 82 | 1010.4 |
| 20260504045042 | 15 | 191 | 3.2 | 8.0 | 0.00 | 0.03 | 0.03 | 81 | 1010.4 |
| 20260504044557 | 15 | 166 | 1.6 | 8.0 | 0.00 | 0.03 | 0.03 | 81 | 1010.3 |
| 20260504044042 | 15 | 200 | 3.2 | 8.0 | 0.00 | 0.03 | 0.03 | 81 | 1010.2 |
| 20260504043542 | 15 | 180 | 1.6 | 8.0 | 0.00 | 0.03 | 0.03 | 80 | 1010.2 |
| 20260504043053 | 15 | 157 | 1.6 | 8.0 | 0.00 | 0.03 | 0.03 | 80 | 1010.1 |
| 20260504042547 | 15 | 178 | 3.2 | 6.4 | 0.00 | 0.03 | 0.03 | 79 | 1010.0 |
| 20260504042042 | 15 | 194 | 3.2 | 8.0 | 0.00 | 0.03 | 0.03 | 79 | 1010.1 |
| 20260504041545 | 15 | 154 | 3.2 | 8.0 | 0.00 | 0.03 | 0.03 | 79 | 1010.0 |
| 20260504041042 | 15 | 214 | 3.2 | 4.8 | 0.00 | 0.03 | 0.03 | 80 | 1009.9 |
| 20260504040542 | 15 | 178 | 1.6 | 4.8 | 0.00 | 0.03 | 0.03 | 78 | 1009.8 |
| 20260504040112 | 16 | 161 | 3.2 | 6.4 | 0.00 | 0.03 | 0.03 | 78 | 1009.6 |